Find Starlink 11482

NORAD ID: 62520 Int'l Des: 2025-004 Owner: SPXS Country: US Constellation: starlink operational
LEOCIRCULAR

現在のビュー

3D地球を読み込み中...

About Starlink 11482

Starlink 11482 (NORAD 62520) is a starlink constellation satellite (v2 mini d2c) launched Jan 8, 2025 by SPXS of US. It operates in LEO, CIRCULAR orbit with a mass of 960.00 kg.

Starlink 11482について

説明を読み込み中...

次回通過

Passes for default location (London). Set your location on the main map for personalized predictions.

高度履歴

Loading altitude history...

軌道要素

1 62520U 25004K 26171.38587058 .00152208 00000-0 11676-2 0 9998
2 62520 43.0012 171.3807 0001739 268.4284 91.6385 15.70849957 83365
Epoch: Jun 20, 2026 • Age: 23 hours

現在のステータス

高度 359.3 km
速度 7.70 km/s
衛星直下点 40.58°N, 119.08°W
打ち上げ日 Jan 8, 2025
運用期間 1.4 years
タイプ internet

技術仕様

分類 Payload
質量 960.00 kg
乾燥質量 910.00 kg
総質量 960.00 kg
長さ 0.30 m
直径 4.10 m
スパン 29.00 m
形状 Box + pan
製造者 SPXS
バスタイプ Starlink V2MD
フェーズステータス In Orbit
所有者/国 SPXS/US

Most Searched